Theta_e
332 330 328 323 309 304 300 306 322 320 322 328 330 326 322 323 318 313 340 345 353 353 357 360 363 361 359 359 359 359 359 358 357 357 356 356 356 356 356 356 355 354 353 353 352 352 351 351 351
322 323 323 316 305 298 300 308 315 323 327 329 330 327 325 322 333 333 334 349 352 353 352 356 362 361 359 359 359 360 359 358 357 357 356 356 356 356 355 355 355 354 354 353 353 353 353 354 354
327 323 315 310 302 301 303 313 322 327 331 329 327 333 331 327 336 334 340 345 349 349 351 355 361 361 359 358 359 359 358 358 357 356 355 355 354 355 356 355 355 355 355 355 355 355 355 355 355
319 315 315 306 301 305 309 315 324 323 327 329 330 326 334 340 339 340 342 343 344 347 350 359 361 361 360 359 359 358 357 357 356 355 355 355 355 356 356 356 355 355 355 355 356 356 357 357 358
316 310 304 303 304 309 311 315 322 319 321 325 328 324 327 337 344 343 341 343 345 348 352 356 361 360 361 359 358 358 357 357 357 357 356 357 357 357 357 357 356 355 354 355 355 357 358 357 356
305 308 301 302 304 311 310 318 320 321 322 324 324 324 326 338 344 343 346 345 345 346 349 351 359 360 359 360 359 358 357 356 356 356 357 357 357 357 358 358 358 357 357 356 355 357 357 356 356
302 303 303 302 305 308 310 320 321 322 322 323 327 321 328 335 340 349 350 348 345 343 345 345 349 355 358 358 357 356 355 355 354 354 355 356 357 357 358 358 358 358 357 357 356 357 356 356 356
306 308 303 306 304 304 309 313 323 323 320 331 333 322 323 333 339 342 344 343 342 342 342 343 346 348 347 348 357 356 356 356 355 355 356 356 357 357 357 356 350 357 357 357 356 355 355 355 354
311 303 300 304 306 308 312 312 315 325 327 329 329 330 334 338 338 333 338 339 341 342 341 342 343 345 345 346 349 356 358 356 356 355 356 353 342 341 340 351 356 357 357 355 352 354 353 353 352
304 299 305 311 312 310 311 315 320 323 324 326 329 334 337 337 331 330 332 331 337 338 341 343 343 345 346 350 344 348 349 350 348 347 341 328 329 332 334 342 344 344 350 350 349 346 345 342 342
302 300 309 313 315 312 308 310 317 321 319 326 326 330 333 330 328 329 331 332 334 338 332 333 341 336 342 330 341 343 344 344 339 330 326 324 329 325 324 324 322 322 331 327 325 324 328 325 329
300 305 309 311 312 310 310 312 313 314 319 330 332 333 328 326 329 331 330 329 333 336 327 329 331 329 328 326 326 326 326 329 330 325 327 324 326 322 321 320 319 320 319 316 317 317 320 322 326
300 303 305 307 307 309 314 312 312 311 325 330 332 330 327 328 329 332 333 333 329 328 329 329 330 328 326 325 326 323 323 325 327 326 325 326 324 322 321 318 317 319 318 316 314 316 318 317 318
304 303 304 303 306 308 312 313 313 314 321 327 329 325 325 327 329 328 330 330 329 330 328 327 329 328 328 324 323 325 323 324 323 323 325 326 321 323 322 318 317 318 318 317 314 316 316 314 315
303 300 302 301 304 306 313 308 310 315 318 323 325 323 327 328 327 327 330 328 328 329 330 329 329 331 325 324 326 323 321 325 321 323 326 325 324 323 322 319 318 317 317 316 315 317 315 314 315
301 298 295 300 309 309 307 299 307 315 316 318 321 322 323 323 325 327 330 330 332 328 327 329 332 328 326 324 323 323 323 324 325 324 322 324 325 323 321 320 320 323 319 317 317 316 315 314 313
298 293 296 301 306 309 305 300 309 314 314 319 321 320 319 319 325 328 330 330 330 327 325 326 327 325 327 325 325 327 327 325 323 322 321 323 326 324 321 320 320 321 318 317 318 319 315 315 312
294 296 297 299 303 304 300 299 304 311 313 319 320 319 319 321 323 327 332 329 327 325 325 325 326 326 326 326 329 327 323 320 319 318 319 318 319 320 319 317 316 317 315 317 317 315 314 317 316
301 300 300 302 304 301 298 300 303 307 309 318 319 317 318 319 323 326 328 323 327 326 324 323 324 325 327 327 326 322 318 315 315 314 319 317 317 316 313 313 314 316 314 312 312 312 311 310 311
302 299 298 301 304 300 298 299 303 307 307 316 318 317 317 318 321 324 323 321 322 325 323 327 329 325 324 322 321 318 315 314 314 312 314 315 316 315 315 312 311 311 310 310 310 310 309 309 311
299 298 298 298 301 300 298 296 302 307 310 318 319 320 320 319 320 322 320 320 325 328 328 328 325 321 321 320 318 314 312 313 312 311 311 314 315 315 314 313 311 310 310 310 309 309 312 310 309
296 304 303 302 298 292 298 289 298 302 304 308 315 317 318 319 320 320 321 319 324 327 328 326 323 319 318 317 315 312 310 309 309 310 310 311 313 313 313 312 312 310 309 308 311 314 312 312 305
301 306 303 302 296 293 295 291 295 300 301 302 305 313 316 318 319 320 320 322 323 325 325 320 320 319 318 316 314 312 310 310 310 310 309 309 309 311 312 311 309 309 309 309 310 309 305 304 303
308 302 299 297 293 288 293 294 293 296 300 302 305 310 319 318 320 320 320 321 322 319 318 317 316 314 315 315 314 312 310 308 307 307 306 306 307 307 308 309 308 310 308 307 307 306 306 306 307
302 295 289 289 288 288 294 294 294 300 303 304 304 311 316 316 316 316 317 312 312 315 315 313 312 312 312 311 310 310 309 307 306 306 305 304 304 305 308 308 307 308 308 311 309 306 305 306 307
299 296 289 284 285 288 296 292 295 303 304 306 306 308 314 314 312 315 315 310 309 310 310 309 309 307 308 309 311 309 308 307 307 306 305 305 304 310 311 311 308 308 308 307 306 305 306 307 307
300 295 298 291 291 288 292 296 302 303 305 306 305 307 305 307 310 310 309 309 309 307 308 308 306 306 307 309 310 308 307 306 305 305 305 309 310 309 309 310 309 307 307 308 308 307 306 305 305
302 303 294 291 286 284 289 293 294 300 302 304 303 303 304 304 305 307 307 307 306 305 305 305 305 305 306 308 307 308 306 306 305 306 308 307 307 308 309 309 309 307 307 307 307 306 306 305 306
301 297 296 294 292 286 285 291 300 301 302 302 302 303 303 304 304 304 305 305 305 305 305 304 304 305 307 306 306 306 306 305 305 304 304 307 307 307 308 308 308 307 307 307 306 306 306 305 305
303 298 295 289 289 291 289 290 302 302 303 304 304 304 303 304 303 304 305 305 304 303 303 304 304 306 306 306 305 304 304 305 306 302 306 307 306 307 308 307 306 307 307 307 307 306 307 305 304
Wind_Speed
5 5 3 2 6 6 4 4 12 12 5 4 10 7 8 3 5 3 3 11 14 9 8 10 12 12 12 12 11 10 8 8 8 7 7 7 6 6 6 5 5 5 4 4 4 5 5 6 7
3 2 2 4 6 6 6 1 10 12 12 18 16 14 10 7 6 9 5 8 11 9 5 7 12 11 12 11 10 8 8 7 6 6 6 5 3 2 2 2 2 2 2 3 3 4 5 6 6
5 2 4 5 4 1 3 4 19 15 16 8 6 8 5 4 8 12 7 12 10 6 4 6 12 11 11 10 8 8 7 6 6 5 3 2 1 1 2 2 3 3 4 4 5 5 5 6 7
3 6 6 4 5 5 6 5 15 14 11 9 11 9 5 4 2 8 16 13 8 7 6 8 11 11 10 10 9 8 7 6 4 3 1 2 2 3 4 5 6 6 7 7 7 8 7 8 8
5 4 5 4 5 4 4 8 9 10 7 12 8 8 4 4 10 17 14 13 11 8 7 8 11 12 11 11 9 7 6 5 4 2 3 4 5 6 7 7 8 8 8 8 9 9 8 7 8
5 4 4 4 4 6 2 15 9 11 12 14 11 8 3 7 15 15 14 13 10 11 7 6 11 10 9 9 9 9 8 7 5 4 5 5 6 8 8 9 10 9 10 11 11 9 9 10 9
5 4 6 3 4 5 2 9 12 14 11 6 12 8 6 5 11 15 14 10 10 9 7 4 5 8 10 10 9 8 7 6 5 5 5 7 7 9 10 10 11 10 11 10 10 11 10 11 11
6 5 3 5 0 2 2 5 11 17 4 14 15 8 7 6 13 13 11 9 7 7 6 6 5 4 5 4 8 8 7 6 5 6 7 7 7 8 11 9 7 10 9 9 9 11 12 12 12
5 6 5 6 9 6 5 7 4 3 18 8 5 8 14 11 6 9 8 5 4 5 3 5 5 5 4 4 5 7 7 6 6 6 7 4 2 4 6 7 7 7 8 8 8 10 9 10 8
3 4 11 6 6 6 6 15 15 9 11 9 16 11 16 11 8 8 7 6 5 5 6 5 5 5 4 5 4 2 4 3 2 3 1 3 4 3 5 7 10 10 10 6 6 9 9 8 4
4 6 10 7 6 9 7 9 6 16 9 22 23 21 14 18 18 18 14 8 4 5 6 6 6 1 5 2 2 1 2 2 1 2 4 2 3 3 3 2 3 3 6 3 5 4 4 6 4
3 7 7 4 5 8 9 7 8 6 9 20 23 20 20 19 19 15 10 9 9 2 6 7 6 4 4 2 4 3 2 1 1 3 3 2 1 1 1 1 2 3 1 2 3 3 2 6 6
5 2 4 5 9 6 9 8 8 7 19 18 18 21 24 20 17 14 14 3 8 5 4 8 8 4 4 5 3 3 3 2 4 1 3 2 3 3 2 2 1 1 1 1 3 3 3 4 5
4 5 3 2 7 4 9 3 4 6 12 20 20 23 21 23 19 10 14 10 9 8 6 2 8 5 5 5 4 4 3 2 1 3 4 5 4 3 3 3 1 2 2 2 3 3 1 2 2
1 5 6 2 1 5 13 3 6 6 15 19 16 21 19 21 20 7 11 11 16 8 6 8 8 7 6 4 2 1 2 3 5 5 5 5 4 5 4 3 2 3 3 3 2 1 1 2 2
7 4 3 7 8 3 8 6 8 10 10 15 19 15 17 13 6 7 4 6 2 7 8 7 6 7 5 4 0 3 4 4 4 5 5 7 7 6 5 4 4 4 3 3 4 3 3 3 3
8 3 5 3 4 6 6 2 3 5 11 16 15 15 12 5 1 7 6 5 1 4 9 7 8 7 6 3 1 3 5 5 4 4 4 6 7 7 5 4 4 4 3 3 2 2 1 2 4
5 4 5 8 7 9 6 3 3 5 9 18 14 12 11 9 11 10 9 5 4 5 7 9 6 7 5 3 3 3 4 4 3 3 4 6 4 6 5 4 5 5 3 3 2 1 1 2 3
6 7 7 3 6 5 1 3 6 8 14 17 14 12 12 13 7 9 3 5 7 5 7 7 7 3 3 3 2 3 3 2 2 3 3 5 5 5 5 4 5 4 4 4 4 3 1 2 3
8 8 6 3 3 4 5 7 5 7 7 15 16 14 13 6 7 12 5 6 4 4 5 6 7 4 6 4 2 2 2 2 2 1 2 3 3 4 5 6 5 6 4 5 3 1 1 1 2
4 6 1 3 6 3 5 6 4 5 10 10 6 10 12 16 16 10 7 4 1 5 6 6 6 7 7 3 2 1 1 2 3 3 3 4 5 5 3 2 2 2 1 1 1 1 2 1 1
4 3 3 5 6 3 4 2 3 4 7 9 8 9 10 11 6 5 5 6 7 7 6 7 6 7 5 6 3 3 3 2 3 2 1 4 5 5 6 5 5 5 3 4 2 1 1 2 2
3 3 3 3 2 4 2 7 7 2 6 5 7 11 10 10 7 6 7 9 7 6 6 5 7 7 6 5 3 3 2 3 1 2 3 3 4 6 6 6 6 5 4 3 4 3 2 1 2
2 7 9 6 3 4 4 5 4 2 3 2 6 7 9 6 7 7 7 6 6 5 6 7 8 5 3 3 4 5 4 2 1 2 3 4 3 4 5 5 5 5 3 2 2 2 2 2 3
12 9 6 8 8 5 3 6 6 3 5 7 7 7 7 5 7 8 8 7 8 9 8 5 5 3 4 4 2 3 5 3 3 4 3 4 3 3 5 4 4 3 3 2 2 3 4 4 4
4 7 6 0 2 6 7 3 5 7 5 7 8 7 6 7 4 6 6 6 7 7 5 5 7 4 4 3 4 4 3 3 2 2 2 3 3 4 5 4 4 5 3 4 5 4 5 5 4
4 4 5 5 2 2 3 2 6 6 6 7 6 7 6 7 6 5 5 5 5 5 7 7 5 3 1 3 4 3 1 2 3 3 3 3 4 4 6 5 5 4 5 5 5 5 6 5 5
5 3 5 5 1 3 5 3 5 6 7 5 6 8 8 7 9 8 7 7 5 5 4 5 4 3 2 3 3 2 3 3 2 4 5 5 5 4 6 6 5 6 5 6 6 5 5 5 5
4 3 6 5 5 4 2 6 6 8 8 7 7 7 7 6 6 7 7 6 6 5 4 4 3 4 4 4 3 4 3 3 4 5 6 6 7 6 6 6 7 8 7 7 6 5 6 6 5
5 5 6 7 6 2 4 8 6 8 9 8 6 5 2 7 8 8 8 7 6 4 3 3 2 4 3 2 3 3 1 1 5 6 6 7 8 7 5 7 8 8 8 7 6 6 5 5 6
Wind_Direction
287 189 150 124 49 51 311 65 124 130 92 117 115 135 171 141 153 187 68 142 138 160 158 147 145 134 131 128 127 121 110 100 95 90 80 70 62 59 57 50 44 45 41 35 26 15 9 3 358
338 18 333 65 74 32 310 200 101 109 112 110 99 89 72 61 67 106 94 150 147 155 158 143 143 139 135 131 129 124 118 114 109 102 96 85 74 67 54 36 23 10 356 347 344 339 338 338 337
356 354 60 87 114 95 309 43 126 126 133 128 98 97 88 117 114 160 136 150 150 135 122 154 144 140 138 134 131 131 132 135 129 110 91 100 94 321 300 304 305 307 304 305 309 310 309 312 317
17 358 15 54 272 223 149 78 127 115 80 84 110 70 47 81 69 114 133 142 127 139 152 159 151 144 143 142 145 148 153 142 127 117 180 249 283 293 300 298 291 289 296 304 305 303 304 308 308
26 53 71 318 270 251 159 161 185 130 99 105 107 100 69 44 106 129 134 145 151 155 166 163 164 154 155 157 157 157 156 156 166 188 243 274 288 287 278 274 276 282 286 282 283 285 286 288 292
30 102 70 247 276 290 283 138 175 100 112 103 98 104 126 130 119 142 150 158 162 159 166 168 170 162 166 171 172 175 183 189 198 227 254 272 274 274 277 278 277 274 276 276 275 280 285 284 280
118 70 193 260 312 22 71 160 120 133 145 128 153 114 174 161 148 153 159 151 159 154 151 173 178 180 185 185 187 196 206 204 209 242 258 268 279 285 281 277 283 283 271 280 287 283 271 270 273
110 97 238 222 172 324 285 149 155 142 142 141 142 154 179 207 162 157 143 139 149 150 153 167 181 194 202 212 206 207 214 227 227 244 262 277 293 293 291 282 301 282 280 289 286 300 292 284 272
125 89 256 236 149 207 239 133 197 123 138 183 201 119 159 179 144 119 123 106 113 132 141 173 170 216 224 220 239 221 223 225 234 253 269 314 5 7 3 325 319 324 333 339 336 340 2 348 341
104 155 219 219 166 169 220 129 129 130 133 111 111 119 143 141 71 91 68 127 132 135 167 175 169 217 228 244 209 224 247 238 257 269 223 109 88 82 56 36 20 11 356 9 35 25 17 8 354
194 231 181 233 162 176 188 140 120 123 143 149 147 145 147 78 54 30 20 342 172 130 104 137 135 207 210 292 159 224 253 265 298 211 186 120 84 66 66 47 22 13 38 32 31 20 18 13 6
314 267 176 207 225 138 165 139 143 160 169 156 152 146 100 90 72 76 33 22 322 108 128 100 107 101 93 90 73 102 96 121 193 233 145 134 128 146 133 90 58 58 65 46 33 30 48 59 54
206 77 164 151 82 123 127 153 165 120 147 157 150 117 119 122 139 151 148 235 78 320 160 136 123 112 102 85 91 122 126 122 184 247 293 246 206 220 195 233 142 154 170 111 65 57 56 64 54
227 114 157 212 117 138 127 119 93 224 144 161 152 128 136 146 157 164 125 166 139 168 220 178 119 106 89 68 43 41 33 135 234 284 304 293 289 262 236 255 238 239 228 190 116 136 97 74 91
32 19 2 291 139 116 110 63 232 176 163 163 129 144 151 160 165 131 188 153 185 149 184 182 127 114 93 76 58 16 350 355 1 338 341 338 274 239 237 257 308 306 323 334 42 122 58 17 337
14 55 341 277 169 153 95 262 259 209 154 122 140 146 153 167 147 212 212 218 157 136 159 198 121 122 125 126 202 337 12 18 22 9 350 359 5 356 5 5 8 347 3 25 26 28 10 6 351
5 255 315 297 347 116 83 276 257 233 143 136 141 141 138 125 276 229 209 235 201 153 152 142 130 144 160 159 65 10 46 41 28 30 22 23 25 26 29 13 346 342 356 31 20 29 82 1 320
266 20 14 58 327 36 27 283 231 218 64 135 133 140 153 173 205 204 207 228 215 202 142 139 162 168 176 90 76 58 60 50 52 39 59 39 31 34 30 353 338 324 329 325 337 305 257 195 274
114 74 72 17 354 81 9 277 328 104 100 136 144 158 174 186 210 218 217 276 187 215 152 169 148 187 115 73 76 31 12 330 25 37 63 37 30 13 348 316 299 285 283 275 287 285 1 334 15
70 59 357 271 31 88 359 8 31 45 113 147 155 175 179 172 203 215 204 248 205 188 176 103 103 146 102 108 116 139 214 234 217 298 337 17 349 340 346 333 320 311 300 304 310 86 45 310 55
56 95 55 219 339 340 61 26 40 33 92 114 154 176 175 184 197 213 202 235 184 135 147 155 152 132 105 139 170 185 242 0 358 333 314 332 338 352 15 330 288 337 53 1 327 236 138 182 311
47 309 26 348 42 280 88 258 333 51 56 117 151 180 189 194 205 211 211 191 175 180 175 181 144 116 173 175 163 172 186 218 242 241 309 316 344 333 316 304 297 287 283 285 275 349 25 80 308
249 8 326 295 232 66 32 78 278 333 48 27 129 191 194 193 195 188 196 169 195 165 162 140 144 187 200 189 155 150 206 229 289 301 321 314 299 303 305 312 311 300 295 299 333 341 350 160 194
348 15 23 33 78 45 342 130 300 297 169 43 50 100 162 164 175 169 192 160 174 151 144 166 181 200 179 148 179 188 206 242 280 290 275 288 287 288 292 296 312 306 297 296 293 338 322 268 230
53 45 353 8 12 236 338 64 218 235 174 139 124 123 159 178 175 172 180 148 141 149 171 183 158 163 168 166 174 157 150 174 223 252 256 285 287 275 279 291 302 294 244 259 313 317 296 280 253
73 118 140 275 293 282 336 85 235 222 91 73 82 137 162 161 194 193 173 155 149 162 157 144 144 150 188 160 144 140 168 202 245 264 280 276 252 277 281 303 306 306 320 313 298 274 272 273 261
322 25 180 112 9 33 284 357 3 58 67 70 67 59 96 149 199 175 137 165 157 144 146 139 145 156 115 119 143 175 220 345 321 310 256 256 275 288 310 299 292 269 273 268 277 278 281 277 275
127 178 27 15 310 312 311 225 225 183 174 134 104 111 93 106 124 154 153 150 143 134 133 120 93 79 61 117 103 64 16 55 339 302 298 294 286 298 300 297 271 271 267 281 256 257 256 267 270
360 20 61 109 129 162 312 275 217 198 181 156 145 135 157 152 97 116 110 109 124 113 93 85 76 96 97 86 80 68 67 13 299 311 308 311 310 295 294 295 288 291 285 284 258 250 253 259 268
164 172 125 117 269 183 154 273 294 187 177 149 145 185 193 83 120 131 139 135 122 125 114 118 91 110 92 85 83 95 53 358 348 300 303 306 302 295 284 299 298 294 287 277 266 265 267 269 279